| time (UTC) | temp F | wind direction | speed knots | gust knots | rain 1hr in | rain 24hr in | rain mn in | humidity % | barometer mb |
| 20260504045053 | 52 | 0.0 | 0.0 | 0.00 | 0.00 | 0.00 | 89 | 1019.7 | |
| 20260504043051 | 52 | 0.0 | 0.0 | 0.00 | 0.00 | 0.00 | 85 | 1019.8 | |
| 20260504041050 | 52 | 0.0 | 0.0 | 0.00 | 0.00 | 0.00 | 89 | 1019.5 | |
| 20260504035048 | 52 | 0.0 | 0.0 | 0.00 | 0.00 | 0.00 | 94 | 1019.5 | |
| 20260504033047 | 53 | 0.0 | 0.0 | 0.00 | 0.00 | 0.00 | 98 | 1019.4 | |
| 20260504031046 | 52 | 0.0 | 0.0 | 0.00 | 0.00 | 0.00 | 96 | 1019.5 | |
| 20260504025045 | 51 | 0.0 | 0.0 | 0.00 | 0.00 | 0.00 | 86 | 1019.7 | |
| 20260504023043 | 51 | 0.0 | 0.0 | 0.00 | 0.00 | 0.00 | 80 | 1019.6 | |
| 20260504021043 | 52 | 0.0 | 0.0 | 0.00 | 0.00 | 0.00 | 77 | 1019.6 | |
| 20260504015041 | 52 | 0.0 | 0.0 | 0.00 | 0.00 | 0.00 | 73 | 1019.4 | |
| 20260504013039 | 51 | 0.0 | 0.0 | 0.00 | 0.00 | 0.00 | 76 | 1019.3 | |
| 20260504011038 | 52 | 0.0 | 0.0 | 0.00 | 0.00 | 0.00 | 78 | 1019.5 | |
| 20260504005037 | 52 | 0.0 | 0.0 | 0.00 | 0.00 | 0.00 | 88 | 1019.6 | |
| 20260504003036 | 53 | 0.0 | 0.0 | 0.00 | 0.00 | 0.00 | 87 | 1019.6 | |
| 20260504001034 | 53 | 0.0 | 0.0 | 0.00 | 0.00 | 0.00 | 91 | 1019.6 | |
| 20260503235033 | 53 | 0.0 | 0.0 | 0.00 | 0.00 | 0.00 | 90 | 1019.9 | |
| 20260503233032 | 53 | 0.0 | 0.0 | 0.00 | 0.00 | 0.00 | 90 | 1020.0 | |
| 20260503231030 | 54 | 0.0 | 0.0 | 0.00 | 0.00 | 0.00 | 94 | 1020.1 | |
| 20260503225029 | 54 | 0.0 | 0.0 | 0.00 | 0.00 | 0.00 | 95 | 1020.3 | |
| 20260503223028 | 55 | 0.0 | 0.0 | 0.00 | 0.00 | 0.00 | 98 | 1020.3 | |
| 20260503221027 | 55 | 0.0 | 0.0 | 0.00 | 0.00 | 0.00 | 96 | 1020.4 | |
| 20260503215025 | 55 | 0.0 | 0.0 | 0.00 | 0.00 | 0.00 | 98 | 1020.3 | |
| 20260503213024 | 55 | 0.0 | 0.0 | 0.00 | 0.00 | 0.00 | 98 | 1020.3 | |
| 20260503211023 | 56 | 0.0 | 0.0 | 0.00 | 0.00 | 0.00 | 97 | 1020.3 | |
| 20260503205021 | 55 | 0.0 | 0.0 | 0.00 | 0.00 | 0.00 | 99 | 1020.5 | |
| 20260503203020 | 55 | 0.0 | 0.0 | 0.00 | 0.00 | 0.00 | 97 | 1020.5 | |
| 20260503201019 | 56 | 0.0 | 0.0 | 0.00 | 0.00 | 0.00 | 95 | 1020.3 | |
| 20260503195017 | 56 | 0.0 | 0.0 | 0.00 | 0.00 | 0.00 | 94 | 1020.3 | |
| 20260503193017 | 57 | 0.0 | 0.0 | 0.00 | 0.00 | 0.00 | 93 | 1020.4 | |
| 20260503191015 | 57 | 0.0 | 0.0 | 0.00 | 0.00 | 0.00 | 91 | 1020.3 | |
| 20260503185014 | 57 | 0.0 | 0.0 | 0.00 | 0.00 | 0.00 | 89 | 1020.0 | |
| 20260503183012 | 58 | 0.0 | 0.0 | 0.00 | 0.00 | 0.00 | 87 | 1019.9 | |
| 20260503181011 | 59 | 0.0 | 0.0 | 0.00 | 0.00 | 0.00 | 85 | 1019.6 | |
| 20260503175009 | 62 | 0.0 | 0.0 | 0.00 | 0.00 | 0.00 | 74 | 1019.3 | |
| 20260503173008 | 65 | 0.0 | 0.0 | 0.00 | 0.00 | 0.00 | 66 | 1019.2 | |
| 20260503171007 | 67 | 0.0 | 0.0 | 0.00 | 0.00 | 0.00 | 58 | 1019.0 | |
| 20260503150959 | 69 | 0.0 | 0.0 | 0.00 | 0.00 | 0.00 | 51 | 1019.1 | |
| 20260503130943 | 69 | 0.0 | 0.0 | 0.00 | 0.00 | 0.00 | 52 | 1019.7 | |
| 20260503080914 | 62 | 0.0 | 0.0 | 0.00 | 0.00 | 0.00 | 53 | 1021.0 | |
| 20260503072911 | 62 | 0.0 | 0.0 | 0.00 | 0.00 | 0.00 | 54 | 1021.0 | |
| 20260503070910 | 61 | 0.0 | 0.0 | 0.00 | 0.00 | 0.00 | 54 | 1021.0 | |
| 20260503054904 | 59 | 0.0 | 0.0 | 0.00 | 0.00 | 0.00 | 55 | 1020.8 | |
| 20260503052903 | 59 | 0.0 | 0.0 | 0.00 | 0.00 | 0.00 | 55 | 1020.7 |